sat.trackr.live / text

‹ back to catalog

STARLINK-5891

NORAD 56351 · 2023-058AL

PAYLOAD ACTIVE UNKNOWN

§ Identity

Operator
Country
US
Launch date
2023-04-27
Launch site
AFWTR
Launch vehicle
Mass (kg)
RCS (m²)

Purposes: comms

External: N2YO · Heavens-Above · Gunter

§ Orbital elements

Epoch: 2026-09-20T23:01:37.591104Z

Period
93.91 min
Inclination
97.2831°
Eccentricity
0.0001986
Mean motion
15.33436475 rev/d
Perigee alt
464.2 km
Apogee alt
466.9 km
Semi-major
6,843.7 km
B*
1.2059e-5
RAAN
260.6845°
Arg perigee
97.5277°
Mean anomaly
262.6192°
Rev number
18,770

§ Raw data

STARLINK-58911 56351U 23058AL  26263.95946286  .00000314  00000+0  12059-4 0  99942 56351  97.2831 260.6845 0001986  97.5277 262.6192 15.33436475187706

JSON: /api/v1/satellites/56351 · /tle

For live sub-satellite position, see the globe view (requires WebGL).

§ Visibility from observer

Set your observer location to see the next 7 days of passes ≥ 10°. The values pass through the URL so the page stays shareable.

No JS? Fill the form by hand. The geolocation button needs JavaScript.